Location: Aldenham
(51.6667°N, 0.3500°W)
Time: 16:45:28
(UTC+00:00)

Cosmos 1464 Rocket - Pass Details

Date: 18 November 2025
Orbit: 950 x 1001 km, 82.9° (Epoch: 09 December)

Event Time Altitude Azimuth Distance (km) Brightness Sun altitude
Rises 17:42:00 0° 170° (S) 3,688 7.1 -14.4°
Reaches altitude 10° 17:44:35 10° 165° (SSE) 2,737 6.3 -14.8°
Maximum altitude 17:50:36 52° 92° (E) 1,206 4.1 -15.7°
Drops below altitude 10° 17:56:36 10° 18° (NNE) 2,721 6.1 -16.6°
Sets 17:59:09 0° 14° (NNE) 3,665 6.8 -17.0°
